Regional Weather Roundup
Issued by NWS

Home | Current Version | Previous Version | Graphics & Text | Print | Product List | Glossary On
Versions: 1 2 3 4 5 6 7 8 9 10 11 12 13 14 15 16 17 18 19 20 21 22 23 24 25 26 27 28 29 30 31 32 33 34 35 36 37 38 39 40 41 42 43 44 45 46 47 48 49 50
000
ASUS43 KTOP 312259
RWRKS

WEATHER ROUNDUP FOR KANSAS
NATIONAL WEATHER SERVICE GOODLAND KS
600 PM CDT TUE MAY 31 2016

NOTE:  "FAIR" INDICATES FEW OR NO CLOUDS BELOW 12,000 FEET WITH NO
SIGNIFICANT WEATHER AND/OR OBSTRUCTIONS TO VISIBILITY.

KSZ001>006-013>018-027>032-041>047-010000-
NORTHWEST KANSAS

CITY           SKY/WX    TMP DP  RH WIND       PRES   REMARKS
GOODLAND       MOSUNNY   68  47  46 NE8       30.02S
HAYS           SUNNY     73  54  49 NE9       29.96S
HILL CITY      SUNNY     75  51  43 NE9       29.97S
RUSSELL        SUNNY     74  59  59 NE9       29.94S
$$

KSZ061>065-074>080-084>089-010000-
SOUTHWEST KANSAS

CITY           SKY/WX    TMP DP  RH WIND       PRES   REMARKS
DODGE CITY     SUNNY     73  57  57 N10       29.96F
ELKHART          N/A     73  54  51 E9          N/A
GARDEN CITY    MOSUNNY   73  57  57 E9        29.96F
GREAT BEND     CLOUDY    73  57  56 NE9       29.93F
LIBERAL        MOSUNNY   73  54  49 E7        29.98S
$$

KSZ066>073-081>083-090>101-010000-
SOUTHEAST KANSAS

CITY           SKY/WX    TMP DP  RH WIND       PRES   REMARKS
CHANUTE        MOSUNNY   81  65  58 VRB3      29.88F
COFFEYVILLE    PTSUNNY   77  68  73 NE13      29.86S
HUTCHINSON     CLOUDY    76  62  62 N8        29.92F
MEDICINE LODGE   N/A     79  60  52 N12       29.90S
NEWTON         SUNNY     75  57  53 N10         N/A
PARSONS        CLOUDY    77  68  73 N6        29.88F
WICHITA INTL   MOSUNNY   80  59  48 N9        29.88F
WICHITA JABRA  SUNNY     79  60  52 NE7       29.89F
WINFIELD       MOSUNNY   77  66  68 NE9       29.89F
$$

KSZ007>012-019>026-033>040-048>060-102>105-010000-
NORTHEAST KANSAS

CITY           SKY/WX    TMP DP  RH WIND       PRES   REMARKS
CONCORDIA      MOSUNNY   73  58  59 NE8       29.94S
EMPORIA        MOSUNNY   80  58  46 CALM      29.89F
LAWRENCE       CLOUDY    74  63  68 SW5       29.90S
MANHATTAN      CLOUDY    77  60  55 N3        29.90F
OLATHE IND     CLOUDY    74  63  68 W6        29.91S
OLATHE EXE     CLOUDY    74  64  71 NW6       29.90S
SALINA         CLOUDY    77  60  55 N3        29.93S
TOPEKA BILLARD   N/A     77  64  64 SE8       29.89S
TOPEKA FORBES  PTSUNNY   77  63  61 S6        29.90S
$$




USA.gov is the U.S. government's official web portal to all federal, state and local government web resources and services.